Content
SEND FEEDBACK

Daily
Averages
Monthly
Summary
United States of America

BEAVER DAM, WISCONSIN


Home > North America > United States > Wisconsin
Elevation: 871 feet     Latitude: 43 27N     Longitude: 088 50W

WEATHER
 
SELECT A DAY
Number of Records: 448,120;   Date Range: 4/23/95 - 8/28/14
 
SHARE

PRINT THIS DATA

[ ← Previous Day ]
WEATHER ALMANAC - FEBRUARY 13, 2013
[ Next Day → ]
[ °C ]   °F
Weather ElementAverageHighLow
Temperature26.6 °F36.1 °F (3:15 pm)13.8 °F (7:15 am)
Dewpoint22.4 °F28.9 °F (10:55 pm)12.2 °F (5:15 am)
Humidity84.7 %97 % (1:55 am)70 % (3:15 pm)
Barometer29.73 in29.84 in (12:35 am)29.66 in (11:55 pm)
Wind Speed3.6 mph10.4 mph (2:35 pm)
Weather ElementAverage
Visibility7.9 mi
Wind DirectionESE (122.1 °)

Weather ElementTotal
Precipitation---
Heating Degree Days40.1 (Base 65)
Averaged from 66 records on February 13, 2013
WEATHER CONDITIONS BREAKOUT
WIND DIRECTION BREAKOUT
WEATHER BY HOUR - FEBRUARY 13, 2013
[ °C ]   °F
Local TimeTemperatureDewpointHumidityBarometerVisibilityWind DirectionWind SpeedGust SpeedPrecipitationEventsConditions
12:35 AM21.9 °F19.9 °F92 %29.84 in7.0 miSouth (190°)3.5 mphClear
12:55 AM21.0 °F19.2 °F93 %29.83 in7.0 miCalmClear
1:15 AM21.4 °F19.6 °F93 %29.83 in7.0 miCalmClear
1:35 AM21.0 °F19.4 °F93 %29.82 in7.0 miCalmClear
1:55 AM18.7 °F18.0 °F97 %29.81 in5.0 miCalmClear
2:15 AM17.4 °F15.6 °F93 %29.80 in7.0 miCalmClear
2:35 AM17.1 °F15.4 °F93 %29.79 in5.0 miCalmClear
2:55 AM16.3 °F14.2 °F91 %29.79 in5.0 miCalmClear
3:15 AM16.2 °F14.7 °F94 %29.78 in5.0 miCalmClear
3:35 AM16.3 °F14.7 °F93 %29.78 in7.0 miCalmClear
3:55 AM16.0 °F14.2 °F93 %29.77 in7.0 miCalmClear
4:15 AM14.9 °F12.9 °F92 %29.77 in5.0 miCalmClear
4:35 AM14.9 °F13.3 °F93 %29.77 in7.0 miCalmClear
4:55 AM15.3 °F13.6 °F93 %29.76 in7.0 miCalmClear
5:15 AM14.5 °F12.2 °F90 %29.76 in7.0 miCalmClear
5:35 AM14.4 °F12.4 °F92 %29.76 in7.0 miCalmClear
5:55 AM14.7 °F12.9 °F93 %29.75 in5.0 miCalmClear
6:15 AM15.3 °F13.8 °F94 %29.74 in5.0 miCalmClear
6:35 AM14.5 °F13.1 °F94 %29.74 in5.0 miCalmClear
6:55 AM14.0 °F12.6 °F94 %29.74 in4.0 miCalmClear
7:15 AM13.8 °F12.4 °F94 %29.74 in3.0 miCalmClear
7:35 AM15.3 °F13.3 °F92 %29.74 in4.0 miCalmClear
7:55 AM16.2 °F14.7 °F94 %29.74 in3.0 miCalmClear
8:15 AM19.0 °F17.6 °F94 %29.73 in3.0 miCalmClear
8:35 AM22.1 °F20.7 °F94 %29.74 in3.0 miSSW (210°)3.5 mphMostly Cloudy
8:55 AM23.9 °F21.9 °F92 %29.73 in4.0 miCalmOvercast
9:15 AM26.2 °F23.0 °F88 %29.73 in5.0 miCalmOvercast
9:55 AM28.9 °F24.4 °F83 %29.73 in7.0 miSW (220°)3.5 mphMostly Cloudy
10:15 AM30.2 °F24.6 °F80 %29.73 in7.0 miSSW (210°)4.6 mphScattered Clouds
10:35 AM30.7 °F24.8 °F79 %29.73 in7.0 miSSW (200°)5.8 mphScattered Clouds
10:55 AM31.3 °F25.0 °F77 %29.73 in7.0 miSouth (190°)6.9 mphMostly Cloudy
11:15 AM32.0 °F25.7 °F78 %29.72 in10.0 miSouth (190°)5.8 mphOvercast
11:35 AM32.4 °F25.9 °F77 %29.72 in10.0 miSSW (200°)8.1 mphOvercast
11:55 AM32.9 °F26.4 °F77 %29.71 in10.0 miSouth (190°)8.1 mphOvercast
12:15 PM33.3 °F26.6 °F77 %29.71 in10.0 miSSW (200°)9.2 mphOvercast
12:35 PM34.2 °F26.6 °F74 %29.70 in10.0 miSW (220°)8.1 mphOvercast
1:15 PM34.5 °F27.3 °F75 %29.69 in10.0 miSSW (200°)9.2 mphOvercast
1:35 PM34.7 °F27.5 °F75 %29.69 in10.0 miSouth (190°)5.8 mphOvercast
1:55 PM35.1 °F27.5 °F74 %29.68 in10.0 miSW (220°)5.8 mphOvercast
2:15 PM35.1 °F27.3 °F73 %29.68 in10.0 miSSW (210°)9.2 mphScattered Clouds
2:35 PM36.0 °F27.3 °F71 %29.68 in10.0 miSSW (210°)10.4 mphMostly Cloudy
2:55 PM35.8 °F27.1 °F71 %29.69 in10.0 miSW (220°)8.1 mphScattered Clouds
3:15 PM36.1 °F27.3 °F70 %29.69 in10.0 miSW (220°)8.1 mphScattered Clouds
3:35 PM35.6 °F27.5 °F72 %29.69 in10.0 miSW (230°)8.1 mphOvercast
3:55 PM35.6 °F27.3 °F72 %29.69 in10.0 miSW (230°)6.9 mphMostly Cloudy
4:15 PM35.6 °F27.5 °F72 %29.69 in10.0 miSW (230°)8.1 mphClear
4:35 PM34.9 °F27.0 °F73 %29.69 in10.0 miSW (230°)8.1 mphClear
4:55 PM34.7 °F27.1 °F74 %29.69 in10.0 miSW (220°)5.8 mphClear
5:15 PM33.6 °F27.1 °F77 %29.69 in10.0 miSW (220°)5.8 mphClear
5:35 PM32.2 °F27.0 °F81 %29.69 in10.0 miSSW (210°)5.8 mphClear
5:55 PM32.0 °F26.6 °F80 %29.70 in10.0 miSW (220°)5.8 mphClear
6:15 PM31.6 °F26.4 °F81 %29.70 in10.0 miSW (220°)5.8 mphScattered Clouds
6:35 PM30.9 °F26.1 °F82 %29.70 in10.0 miSSW (210°)4.6 mphMostly Cloudy
6:55 PM31.5 °F26.6 °F82 %29.70 in10.0 miSSW (200°)3.5 mphOvercast
7:15 PM31.6 °F27.0 °F83 %29.71 in10.0 miSSW (200°)4.6 mphOvercast
7:35 PM31.6 °F27.1 °F83 %29.70 in10.0 miSSW (210°)4.6 mphOvercast
8:15 PM31.6 °F27.1 °F83 %29.70 in10.0 miSSW (200°)3.5 mphOvercast
8:35 PM32.0 °F27.3 °F83 %29.69 in10.0 miSSW (210°)4.6 mphOvercast
8:55 PM32.0 °F27.5 °F83 %29.69 in10.0 miSSW (200°)4.6 mphOvercast
9:35 PM32.0 °F28.2 °F86 %29.69 in10.0 miSSW (210°)4.6 mphOvercast
9:55 PM32.0 °F28.4 °F87 %29.69 in10.0 miSSW (210°)4.6 mphOvercast
10:15 PM32.0 °F28.4 °F87 %29.69 in10.0 miCalmOvercast
10:55 PM32.5 °F28.9 °F87 %29.68 in10.0 miSouth (180°)3.5 mphOvercast
11:15 PM32.4 °F28.9 °F87 %29.67 in10.0 miCalmOvercast
11:35 PM32.2 °F28.9 °F88 %29.67 in10.0 miSouth (180°)3.5 mphMostly Cloudy
11:55 PM32.5 °F28.9 °F87 %29.66 in10.0 miSSE (150°)4.6 mphOvercast
Hourly data recorded from KRYV, located miles away from Beaver Dam, Wisconsin







STORIES FROM OUR PARTNERS